Погода в Хульяке

Перу     15°29′20″S   70°07′58″W
темп.,
°C
ветер,
м/с
пор.,
м/с
влажн.,
%
обл.,
%
осадки,
мм/ч
давл.,
гПа
погр.,
м
24 июля, сб
сб2401:00+4з12571 0.0 101912
04:00+3з22520 0.0 102013
07:00+5з12470 0.0 102332
10:00+11зсз01300 0.0 10191378
13:00+14св2622100 0.0 10133067
16:00+14зсз3522100 0.0 10102691
19:00+10юз123698 0.0 1016107
22:00+5юз345163 0.0 102157
25 июля, вс
вс2501:00+4юз11476 0.0 102011
04:00+2зюз11465 0.0 102011
07:00+4зюз11472 0.0 102229
10:00+10св12310 0.0 10191327
13:00+14ссв592189 0.0 10113118
16:00+15ссз691774 0.0 10073357
19:00+6ююз245080 0.0 101696
22:00+4юз355644 0.0 1021107
26 июля, пн
пн2601:00+3зюз325854 0.0 102126
04:00+1юз22605 0.0 102112
07:00+3зюз11535 0.0 102348
10:00+9с12395 0.0 10201315
13:00+14с592473 0.0 10113134
16:00+15сз891951 0.0 10072463
19:00+10юз343493 0.0 101390
22:00+5ююз225129 0.0 101927
27 июля, вт
вт2701:00+3юз33596 0.0 102031
04:00+2зюз22645 0.0 102119
07:00+3зюз12574 0.0 102367
10:00+9ссв23425 0.0 10191330
13:00+15с482472 0.0 10112966
16:00+15сз882052 0.0 10072344
19:00+8зюз595078 0.0 1015328
22:00+5зюз33545 0.0 101943
28 июля, ср
ср2801:00+3зюз22585 0.0 101915
04:00+2юз11657 0.0 101915
07:00+3ссз226478 0.0 102286
10:00+9с244756 0.0 10181199
13:00+15ссз582475 0.0 10092940
16:00+15ссз81020100 0.0 10042646
19:00+9юз5737100 0.0 1012124
22:00+6юз474496 0.0 1017141